Yankton, SD

5:52 AM CST on December 07, 2019 (GMT -0600)
Gurney Municipal

Weather History for KYKN - October, 2019

Change the Weather History Date:

Monday, October 14, 2019

  Actual Average Record
Temperature  
Mean Temperature 48 °F -  
Max Temperature 69 °F 65 °F 90 °F (1989)
Min Temperature 26 °F 38 °F 22 °F (1979)
Degree Days  
Heating Degree Days 18    
Moisture  
Dew Point 35 °F    
Average Humidity 72    
Maximum Humidity 100    
Minimum Humidity 39    
Precipitation  
Precipitation 0.00 in - - ()
Sea Level Pressure  
Sea Level Pressure 29.93 in    
Wind  
Wind Speed 7 mph (SE)    
Max Wind Speed 22 mph    
Max Gust Speed 28 mph    
Visibility 9 miles    
Events      
Averages and records for this station are not official NWS values.
T = Trace of Precipitation, MM = Missing Value Source: NWS Daily Summary

Daily Weather History Graph

Daily Weather History Graph

Search for Another Location

Airport or City:

Astronomy

Oct. 14, 2019 Rise Set
Actual Time 7:41 AM CDT 6:48 PM CDT
Civil Twilight 7:13 AM CDT 7:17 PM CDT
Nautical Twilight 6:40 AM CDT 7:50 PM CDT
Astronomical Twilight 6:07 AM CDT 8:22 PM CDT
Moon 7:39 PM CDT (10/14) 8:14 AM CDT (10/14)
Length of Visible Light 12h 04m
Length of Day
11h 07m
Full, 99% of the Moon is Illuminated
Oct 14
Full
Oct 21
Last Quarter
Oct 27
New
Nov 4
First Quarter
Nov 12
Full

Hourly Weather History & Observations

Time (CDT) Temp. Windchill Dew Point Humidity Pressure Visibility Wind Dir Wind Speed Gust Speed Precip Events Conditions
12:56 AM 30.0 °F 25.2 °F 28.0 °F 92% 30.08 in 10.0 mi SW 4.6 mph - N/A   Clear
1:56 AM 28.9 °F 25.2 °F 26.1 °F 89% 30.09 in 10.0 mi SW 3.5 mph - N/A   Clear
2:56 AM 28.9 °F 25.2 °F 27.0 °F 92% 30.09 in 10.0 mi SW 3.5 mph - N/A   Clear
3:56 AM 28.0 °F - 27.0 °F 96% 30.08 in 10.0 mi Calm Calm - N/A   Clear
4:56 AM 27.0 °F - 26.1 °F 96% 30.08 in 10.0 mi Calm Calm - N/A   Clear
5:41 AM 26.6 °F - 26.6 °F 100% 30.00 in 1.8 mi Calm Calm - N/A   Clear
5:54 AM 26.6 °F 22.6 °F 24.8 °F 93% 30.00 in 3.0 mi East 3.5 mph - N/A   Clear
5:56 AM 27.0 °F 23.0 °F 25.0 °F 92% 30.07 in 5.0 mi East 3.5 mph - N/A   Clear
6:56 AM 26.1 °F 21.9 °F 24.1 °F 92% 30.07 in 9.0 mi East 3.5 mph - N/A   Clear
7:56 AM 27.0 °F 21.6 °F 25.0 °F 92% 30.08 in 10.0 mi East 4.6 mph - N/A   Clear
8:56 AM 32.0 °F 26.4 °F 30.9 °F 96% 30.06 in 10.0 mi East 5.8 mph - N/A   Clear
9:56 AM 39.0 °F 34.0 °F 37.0 °F 93% 30.04 in 10.0 mi ESE 6.9 mph - N/A   Clear
10:56 AM 46.0 °F 40.6 °F 37.0 °F 71% 30.02 in 10.0 mi SE 11.5 mph - N/A   Clear
11:56 AM 52.0 °F - 36.0 °F 54% 29.97 in 10.0 mi SE 17.3 mph 23.0 mph N/A   Clear
12:56 PM 55.9 °F - 36.0 °F 47% 29.92 in 10.0 mi SE 17.3 mph 21.9 mph N/A   Clear
1:56 PM 62.1 °F - 37.0 °F 39% 29.86 in 10.0 mi SE 20.7 mph 25.3 mph N/A   Clear
2:56 PM 64.9 °F - 39.0 °F 39% 29.81 in 10.0 mi SSE 21.9 mph 27.6 mph N/A   Clear
3:56 PM 68.0 °F - 42.1 °F 39% 29.79 in 10.0 mi SE 17.3 mph 25.3 mph N/A   Clear
4:56 PM 69.1 °F - 44.1 °F 40% 29.75 in 10.0 mi SSE 20.7 mph 26.5 mph N/A   Clear
5:56 PM 66.9 °F - 45.0 °F 45% 29.76 in 10.0 mi ESE 9.2 mph - N/A   Clear
6:56 PM 62.1 °F - 44.1 °F 52% 29.77 in 10.0 mi East 8.1 mph - N/A   Clear
7:56 PM 60.1 °F - 45.0 °F 57% 29.78 in 10.0 mi SE 10.4 mph - N/A   Clear
8:56 PM 57.9 °F - 45.0 °F 62% 29.77 in 10.0 mi SSE 11.5 mph - N/A   Clear
9:56 PM 55.9 °F - 45.0 °F 67% 29.77 in 10.0 mi SSE 8.1 mph - N/A   Clear
10:56 PM 55.0 °F - 45.0 °F 69% 29.78 in 10.0 mi SSW 6.9 mph - N/A   Clear
11:56 PM 52.0 °F - 44.1 °F 74% 29.80 in 10.0 mi West 11.5 mph - N/A   Clear